Location: Arbon
(43.0005°N, 0.7472°E)
Time: 08:39:38
(UTC+00:00)

USA 234 - Pass Details

Date: 22 April 2026
Orbit: 1102 x 1106 km, 123.0° (Epoch: 4 January)

Event Time Altitude Azimuth Distance (km) Brightness Sun altitude
Rises 21:55:23 0° 49° (NE) 3,926 6.3 -28.1°
Reaches altitude 10° 21:57:59 10° 42° (NE) 2,967 5.7 -28.4°
Maximum altitude 22:04:02 42° 335° (NNW) 1,535 4.4 -29.0°
Drops below altitude 10° 22:10:05 10° 267° (W) 2,962 5.8 -29.5°
Sets 22:12:41 0° 261° (W) 3,919 6.4 -29.8°
